When you browse on this site, cookies collect data to enhance your experience and personalize the content and advertising you see.
Visit our Privacy Policy to learn more. By continuing to use the site, you agree to this use of cookies and data.
  • En España
  • Lista de países
  • Para 7 días
  • Temperatura del agua
  • Mapa Satelital
  • El tiempo en el mapa
  • Informadores
  • user-avatar
    Iniciar sesión

    Tiempo cada hora Pauliny

    Hoy, 16 Enero, Miércoles

    Tiempo Temperatura Precipitaciones Viento Presión Humedad
    00:00 +2°C° 0 mm 7 mps 741 mmHg 83%
    01:00 +2°C° 0 mm 5 mps 741 mmHg 82%
    02:00 +2°C° 0.1 mm 5 mps 742 mmHg 84%
    03:00 +1°C° 0.1 mm 4 mps 742 mmHg 87%
    04:00 +1°C° 0.1 mm 4 mps 743 mmHg 89%
    05:00 +1°C° 0.3 mm 4 mps 743 mmHg 90%
    06:00 +2°C° 0.3 mm 3 mps 743 mmHg 91%
    07:00 +2°C° 0.3 mm 3 mps 744 mmHg 93%
    08:00 +2°C° 0.3 mm 3 mps 744 mmHg 94%
    09:00 +2°C° 0.3 mm 3 mps 744 mmHg 95%
    10:00 +3°C° 0.3 mm 3 mps 745 mmHg 95%
    11:00 +3°C° 0.1 mm 4 mps 745 mmHg 91%
    12:00 +3°C° 0.1 mm 5 mps 744 mmHg 87%
    13:00 +4°C° 0.1 mm 6 mps 744 mmHg 83%
    14:00 +5°C° 0 mm 5 mps 744 mmHg 84%
    15:00 +5°C° 0 mm 5 mps 744 mmHg 85%
    16:00 +3°C° 0 mm 5 mps 744 mmHg 86%
    17:00 +3°C° 0 mm 5 mps 744 mmHg 86%
    18:00 +3°C° 0 mm 6 mps 744 mmHg 86%
    19:00 +3°C° 0 mm 6 mps 744 mmHg 87%
    20:00 +3°C° 0 mm 6 mps 743 mmHg 86%
    21:00 +3°C° 0 mm 6 mps 743 mmHg 86%
    22:00 +3°C° 0 mm 6 mps 743 mmHg 85%
    23:00 +3°C° 0 mm 6 mps 742 mmHg 84%

    Mañana, 17 Enero, Jueves

    Tiempo Temperatura Precipitaciones Viento Presión Humedad
    00:00 +2°C° 0 mm 6 mps 742 mmHg 83%
    01:00 +2°C° 0 mm 6 mps 741 mmHg 82%
    02:00 +2°C° 0.1 mm 6 mps 740 mmHg 80%
    03:00 +2°C° 0.1 mm 7 mps 740 mmHg 78%
    04:00 +2°C° 0.1 mm 7 mps 739 mmHg 76%
    05:00 0°C° 0 mm 7 mps 739 mmHg 75%
    06:00 0°C° 0 mm 7 mps 739 mmHg 74%
    07:00 0°C° 0 mm 8 mps 738 mmHg 73%
    08:00 +1°C° 0.1 mm 8 mps 739 mmHg 74%
    09:00 +1°C° 0.1 mm 8 mps 739 mmHg 75%
    10:00 +2°C° 0.1 mm 8 mps 739 mmHg 76%
    11:00 +2°C° 0 mm 8 mps 739 mmHg 72%
    12:00 +4°C° 0 mm 8 mps 739 mmHg 67%
    13:00 +4°C° 0 mm 8 mps 739 mmHg 63%
    14:00 +2°C° 0 mm 8 mps 739 mmHg 65%
    15:00 +3°C° 0 mm 7 mps 739 mmHg 67%
    16:00 +3°C° 0 mm 6 mps 739 mmHg 69%
    17:00 +2°C° 0.1 mm 6 mps 739 mmHg 71%
    18:00 +2°C° 0.1 mm 6 mps 739 mmHg 73%
    19:00 +2°C° 0.1 mm 6 mps 738 mmHg 75%
    20:00 +2°C° 0.6 mm 6 mps 739 mmHg 73%
    21:00 0°C° 0.6 mm 7 mps 739 mmHg 70%
    22:00 0°C° 0.6 mm 8 mps 739 mmHg 68%
    23:00 -1°C° 0 mm 8 mps 740 mmHg 67%

    Pasado mañana, 18 Enero, Viernes

    Tiempo Temperatura Precipitaciones Viento Presión Humedad
    00:00 -2°C° 0 mm 8 mps 740 mmHg 66%
    01:00 -2°C° 0 mm 8 mps 740 mmHg 65%
    02:00 -2°C° 0 mm 8 mps 740 mmHg 67%
    03:00 -4°C° 0 mm 8 mps 741 mmHg 70%
    04:00 -3°C° 0 mm 7 mps 741 mmHg 72%
    05:00 -3°C° 0.2 mm 7 mps 742 mmHg 75%
    06:00 -3°C° 0.2 mm 6 mps 743 mmHg 78%
    07:00 -2°C° 0.2 mm 6 mps 744 mmHg 81%
    08:00 -2°C° 0.1 mm 6 mps 745 mmHg 78%
    09:00 -3°C° 0.1 mm 6 mps 747 mmHg 75%
    10:00 -2°C° 0.1 mm 5 mps 748 mmHg 72%
    11:00 -1°C° 0 mm 5 mps 749 mmHg 68%
    12:00 -2°C° 0 mm 6 mps 750 mmHg 63%
    13:00 -2°C° 0 mm 6 mps 751 mmHg 59%
    14:00 -2°C° 0 mm 5 mps 752 mmHg 62%
    15:00 -2°C° 0 mm 4 mps 752 mmHg 65%
    16:00 -2°C° 0 mm 3 mps 753 mmHg 67%
    17:00 -2°C° 0 mm 3 mps 753 mmHg 69%
    18:00 -2°C° 0 mm 3 mps 754 mmHg 71%
    19:00 -2°C° 0 mm 3 mps 754 mmHg 72%
    20:00 -2°C° 0 mm 3 mps 755 mmHg 75%
    21:00 -2°C° 0 mm 3 mps 755 mmHg 79%
    22:00 -2°C° 0 mm 3 mps 755 mmHg 82%
    23:00 -2°C° 0 mm 3 mps 755 mmHg 82%

    19 Enero, Sábado

    Tiempo Temperatura Precipitaciones Viento Presión Humedad
    00:00 -3°C° 0 mm 4 mps 755 mmHg 82%
    01:00 -3°C° 0 mm 4 mps 755 mmHg 82%
    02:00 -3°C° 0 mm 4 mps 755 mmHg 81%
    03:00 -3°C° 0 mm 4 mps 755 mmHg 81%
    04:00 -3°C° 0 mm 4 mps 755 mmHg 80%
    05:00 -3°C° 0 mm 4 mps 755 mmHg 81%
    06:00 -3°C° 0 mm 4 mps 755 mmHg 81%
    07:00 -2°C° 0 mm 3 mps 755 mmHg 82%
    08:00 -2°C° 0 mm 3 mps 755 mmHg 81%
    09:00 -2°C° 0 mm 3 mps 756 mmHg 81%
    10:00 -1°C° 0 mm 3 mps 756 mmHg 81%
    11:00 -1°C° 0 mm 3 mps 756 mmHg 79%
    12:00 0°C° 0 mm 3 mps 756 mmHg 77%
    13:00 +1°C° 0 mm 3 mps 756 mmHg 75%
    14:00 +1°C° 0 mm 2 mps 756 mmHg 79%
    15:00 -1°C° 0 mm 2 mps 755 mmHg 82%
    16:00 -1°C° 0 mm 2 mps 755 mmHg 85%
    17:00 -2°C° 0 mm 2 mps 755 mmHg 86%
    18:00 -2°C° 0 mm 2 mps 755 mmHg 87%
    19:00 -2°C° 0 mm 2 mps 756 mmHg 87%
    20:00 -2°C° 0 mm 2 mps 756 mmHg 88%
    21:00 -2°C° 0 mm 2 mps 756 mmHg 88%
    22:00 -2°C° 0 mm 2 mps 756 mmHg 88%
    23:00 -2°C° 0 mm 2 mps 756 mmHg 88%

    20 Enero, Domingo

    Tiempo Temperatura Precipitaciones Viento Presión Humedad
    00:00 -2°C° 0 mm 2 mps 756 mmHg 88%
    01:00 -2°C° 0 mm 2 mps 756 mmHg 88%
    02:00 -2°C° 0 mm 2 mps 756 mmHg 88%
    03:00 -2°C° 0 mm 2 mps 755 mmHg 87%
    04:00 -2°C° 0 mm 2 mps 755 mmHg 87%
    05:00 -2°C° 0 mm 2 mps 755 mmHg 87%
    06:00 -2°C° 0 mm 2 mps 755 mmHg 87%
    07:00 -2°C° 0 mm 2 mps 755 mmHg 87%
    08:00 -2°C° 0 mm 2 mps 756 mmHg 84%
    09:00 -1°C° 0 mm 3 mps 756 mmHg 81%
    10:00 -1°C° 0 mm 3 mps 756 mmHg 78%
    11:00 -1°C° 0 mm 4 mps 756 mmHg 75%
    12:00 -1°C° 0 mm 4 mps 756 mmHg 72%
    13:00 0°C° 0 mm 4 mps 756 mmHg 69%
    14:00 -1°C° 0 mm 4 mps 756 mmHg 71%
    15:00 -1°C° 0 mm 3 mps 757 mmHg 73%
    16:00 -1°C° 0 mm 3 mps 757 mmHg 75%
    17:00 -2°C° 0 mm 3 mps 757 mmHg 75%
    18:00 -2°C° 0 mm 3 mps 758 mmHg 76%
    19:00 -4°C° 0 mm 3 mps 758 mmHg 76%
    20:00 -4°C° 0 mm 3 mps 759 mmHg 74%
    21:00 -4°C° 0 mm 3 mps 759 mmHg 73%
    22:00 -4°C° 0 mm 3 mps 760 mmHg 72%
    23:00 -4°C° 0 mm 3 mps 760 mmHg 72%

    21 Enero, Lunes

    Tiempo Temperatura Precipitaciones Viento Presión Humedad
    00:00 -4°C° 0 mm 3 mps 761 mmHg 73%
    01:00 -4°C° 0 mm 3 mps 761 mmHg 73%
    02:00 -5°C° 0 mm 3 mps 761 mmHg 74%
    03:00 -5°C° 0 mm 3 mps 762 mmHg 74%
    04:00 -5°C° 0 mm 3 mps 762 mmHg 74%
    05:00 -4°C° 0 mm 2 mps 762 mmHg 75%
    06:00 -4°C° 0 mm 2 mps 763 mmHg 75%
    07:00 -4°C° 0 mm 2 mps 763 mmHg 75%
    08:00 -4°C° 0 mm 2 mps 763 mmHg 72%
    09:00 -3°C° 0 mm 2 mps 764 mmHg 69%
    10:00 -3°C° 0 mm 2 mps 764 mmHg 67%
    11:00 -2°C° 0 mm 2 mps 764 mmHg 64%
    12:00 -2°C° 0 mm 2 mps 764 mmHg 61%
    13:00 -1°C° 0 mm 2 mps 764 mmHg 57%
    14:00 -2°C° 0 mm 2 mps 764 mmHg 60%
    15:00 -2°C° 0 mm 2 mps 764 mmHg 62%
    16:00 -3°C° 0 mm 2 mps 764 mmHg 64%
    17:00 -3°C° 0 mm 2 mps 764 mmHg 65%
    18:00 -3°C° 0 mm 2 mps 764 mmHg 66%
    19:00 -3°C° 0 mm 2 mps 764 mmHg 67%
    20:00 -4°C° 0 mm 2 mps 764 mmHg 68%
    21:00 -5°C° 0 mm 3 mps 764 mmHg 68%
    22:00 -5°C° 0 mm 3 mps 764 mmHg 68%
    23:00 -5°C° 0 mm 3 mps 763 mmHg 68%
    Mostrar más